Regional Weather Roundup
Issued by NWS

Home | Current Version | Previous Version | Graphics & Text | Print | Product List | Glossary On
Versions: 1 2 3 4 5 6 7 8 9 10 11 12 13 14 15 16 17 18 19 20 21 22 23 24 25 26 27 28 29 30 31 32 33 34 35 36 37 38 39 40 41 42 43 44 45 46 47 48 49 50
000
ASUS43 KBIS 221210
RWRND

NORTH DAKOTA REGIONAL WEATHER ROUNDUP
NATIONAL WEATHER SERVICE BISMARCK ND
700 AM CDT TUE JUL 22 2014

NOTE: "FAIR" INDICATES FEW OR NO CLOUDS BELOW 12,000 FEET WITH NO
SIGNIFICANT WEATHER AND/OR OBSTRUCTIONS TO VISIBILITY.


NDZ001>003-009>011-017-221300-
NORTHWEST NORTH DAKOTA

CITY           SKY/WX    TMP DP  RH WIND       PRES   REMARKS
WILLISTON      CLOUDY    56  54  93 CALM      30.13R FOG
6HR MIN TEMP:  54; 6HR MAX TEMP:  62;

MINOT          CLEAR     59  57  93 W3        30.11R
MINOT AFB      CLEAR     59  59 100 NW6       30.11R
$$

NDZ018>021-031>035-040>046-221300-
SOUTHWEST NORTH DAKOTA

CITY           SKY/WX    TMP DP  RH WIND       PRES   REMARKS
BISMARCK       CLOUDY    66  62  87 NW5       30.14R
6HR MIN TEMP:  62; 6HR MAX TEMP:  66;

DICKINSON      FOG       54  53  97 CALM      30.14R VSB 1/4
GARRISON         N/A     56  55  97 N5        30.12R
6HR MIN TEMP:  54; 6HR MAX TEMP:  63;

HETTINGER ARPT PTCLDY    55  54  96 N3        30.18R FOG
$$

NDZ004>008-012>016-024-026-027-054-221300-
NORTHEAST NORTH DAKOTA

CITY           SKY/WX    TMP DP  RH WIND       PRES   REMARKS
GRAND FORKS    PTCLDY    62  59  90 NW10      30.01R
GRND FRKS AFB  PTCLDY    62  62  99 NW9       30.03R
DEVILS LAKE    CLEAR     61  55  82 NW7       30.06R
$$

NDZ022-023-025-028>030-036>039-047>053-221300-
SOUTHEAST NORTH DAKOTA

CITY           SKY/WX    TMP DP  RH WIND       PRES   REMARKS
FARGO          CLEAR     64  61  90 NW8       30.01R
6HR MIN TEMP:  64; 6HR MAX TEMP:  68; 6HR PCP: TRACE;

JAMESTOWN      CLEAR     63  60  90 NW9       30.07R
$$



USA.gov is the U.S. government's official web portal to all federal, state and local government web resources and services.